TimeEDT,TemperatureF,Dew PointF,Humidity,Sea Level PressureIn,VisibilityMPH,Wind Direction,Wind SpeedMPH,Gust SpeedMPH,PrecipitationIn,Events,Conditions,WindDirDegrees,DateUTC
12:17 AM,66.2,59.0,78,30.21,10.0,ESE,3.5,-,N/A,,Clear,120,2013-08-17 04:17:00
12:37 AM,64.4,59.0,83,30.22,10.0,ESE,3.5,-,N/A,,Clear,110,2013-08-17 04:37:00
12:57 AM,64.4,59.0,83,30.22,10.0,Calm,Calm,-,N/A,,Clear,0,2013-08-17 04:57:00
1:17 AM,64.4,59.0,83,30.22,10.0,Calm,Calm,-,N/A,,Clear,0,2013-08-17 05:17:00
1:37 AM,62.6,60.8,94,30.21,10.0,Calm,Calm,-,N/A,,Clear,0,2013-08-17 05:37:00
1:57 AM,62.6,60.8,94,30.21,10.0,East,3.5,-,N/A,,Clear,90,2013-08-17 05:57:00
2:17 AM,62.6,60.8,94,30.21,10.0,Calm,Calm,-,N/A,,Clear,0,2013-08-17 06:17:00
2:37 AM,62.6,59.0,88,30.20,10.0,Calm,Calm,-,N/A,,Clear,0,2013-08-17 06:37:00
2:57 AM,62.6,59.0,88,30.21,10.0,Calm,Calm,-,N/A,,Clear,0,2013-08-17 06:57:00
3:17 AM,62.6,59.0,88,30.20,10.0,Calm,Calm,-,N/A,,Clear,0,2013-08-17 07:17:00
3:37 AM,60.8,59.0,94,30.21,10.0,Calm,Calm,-,N/A,,Clear,0,2013-08-17 07:37:00
3:57 AM,60.8,57.2,88,30.20,10.0,North,3.5,-,N/A,,Clear,360,2013-08-17 07:57:00
4:17 AM,62.6,57.2,82,30.20,10.0,NNE,4.6,-,N/A,,Clear,30,2013-08-17 08:17:00
4:37 AM,66.2,55.4,68,30.20,10.0,NE,4.6,-,N/A,,Clear,40,2013-08-17 08:37:00
4:57 AM,66.2,59.0,78,30.21,10.0,NE,3.5,-,N/A,,Clear,50,2013-08-17 08:57:00
5:17 AM,64.4,60.8,88,30.22,10.0,ENE,3.5,-,N/A,,Clear,60,2013-08-17 09:17:00
5:37 AM,64.4,59.0,83,30.22,10.0,ENE,3.5,-,N/A,,Clear,60,2013-08-17 09:37:00
5:57 AM,64.4,59.0,83,30.22,10.0,NE,3.5,-,N/A,,Clear,50,2013-08-17 09:57:00
6:17 AM,64.4,57.2,77,30.23,10.0,NNE,4.6,-,N/A,,Clear,30,2013-08-17 10:17:00
6:37 AM,64.4,57.2,77,30.24,10.0,Calm,Calm,-,N/A,,Clear,0,2013-08-17 10:37:00
6:57 AM,64.4,60.8,88,30.24,10.0,NNE,4.6,-,N/A,,Clear,30,2013-08-17 10:57:00
7:18 AM,66.2,60.8,83,30.25,10.0,NNE,3.5,-,N/A,,Clear,30,2013-08-17 11:18:00
7:38 AM,66.2,60.8,83,30.25,10.0,NNE,3.5,-,N/A,,Clear,20,2013-08-17 11:38:00
7:58 AM,68.0,60.8,78,30.25,10.0,NNE,4.6,-,N/A,,Clear,20,2013-08-17 11:58:00
8:18 AM,68.0,60.8,78,30.25,10.0,NNE,3.5,-,N/A,,Clear,30,2013-08-17 12:18:00
8:38 AM,71.6,59.0,64,30.25,10.0,NE,5.8,-,N/A,,Clear,40,2013-08-17 12:38:00
8:58 AM,69.8,57.2,64,30.25,10.0,NNE,4.6,-,N/A,,Clear,30,2013-08-17 12:58:00
9:18 AM,69.8,59.0,68,30.25,10.0,NE,4.6,-,N/A,,Clear,50,2013-08-17 13:18:00
9:38 AM,71.6,59.0,64,30.26,10.0,NE,5.8,-,N/A,,Clear,50,2013-08-17 13:38:00
9:58 AM,69.8,57.2,64,30.26,10.0,NE,5.8,-,N/A,,Clear,40,2013-08-17 13:58:00
10:18 AM,69.8,57.2,64,30.27,10.0,NE,4.6,-,N/A,,Clear,50,2013-08-17 14:18:00
10:38 AM,71.6,59.0,64,30.27,10.0,ENE,5.8,-,N/A,,Clear,70,2013-08-17 14:38:00
10:58 AM,71.6,57.2,60,30.27,10.0,ENE,6.9,-,N/A,,Clear,60,2013-08-17 14:58:00
11:18 AM,71.6,57.2,60,30.28,10.0,Calm,Calm,-,N/A,,Clear,0,2013-08-17 15:18:00
11:38 AM,71.6,55.4,57,30.28,10.0,ENE,6.9,-,N/A,,Clear,70,2013-08-17 15:38:00
11:58 AM,73.4,55.4,53,30.28,10.0,East,6.9,-,N/A,,Clear,90,2013-08-17 15:58:00
12:18 PM,73.4,55.4,53,30.26,10.0,ENE,6.9,-,N/A,,Clear,70,2013-08-17 16:18:00
12:38 PM,73.4,53.6,50,30.26,10.0,ENE,9.2,-,N/A,,Clear,70,2013-08-17 16:38:00
12:58 PM,75.2,55.4,50,30.26,10.0,NE,8.1,-,N/A,,Clear,50,2013-08-17 16:58:00
1:18 PM,77.0,55.4,47,30.25,10.0,NNE,5.8,-,N/A,,Clear,30,2013-08-17 17:18:00
1:38 PM,77.0,55.4,47,30.25,10.0,East,8.1,-,N/A,,Clear,80,2013-08-17 17:38:00
1:58 PM,77.0,53.6,44,30.25,10.0,NE,5.8,-,N/A,,Clear,50,2013-08-17 17:58:00
2:18 PM,78.8,55.4,44,30.24,10.0,East,5.8,-,N/A,,Clear,90,2013-08-17 18:18:00
2:38 PM,77.0,51.8,41,30.24,10.0,East,8.1,-,N/A,,Clear,80,2013-08-17 18:38:00
2:58 PM,77.0,51.8,41,30.24,10.0,East,5.8,-,N/A,,Clear,90,2013-08-17 18:58:00
3:18 PM,78.8,51.8,39,30.24,10.0,East,5.8,-,N/A,,Clear,90,2013-08-17 19:18:00
3:38 PM,78.8,51.8,39,30.24,10.0,East,10.4,-,N/A,,Clear,100,2013-08-17 19:38:00
3:59 PM,78.8,51.8,39,30.23,10.0,ENE,5.8,-,N/A,,Clear,60,2013-08-17 19:59:00
4:19 PM,78.8,53.6,42,30.22,10.0,ENE,6.9,-,N/A,,Clear,70,2013-08-17 20:19:00
4:39 PM,77.0,53.6,44,30.23,10.0,ENE,4.6,-,N/A,,Clear,60,2013-08-17 20:39:00
4:59 PM,77.0,55.4,47,30.23,10.0,NE,5.8,-,N/A,,Clear,50,2013-08-17 20:59:00
5:19 PM,77.0,55.4,47,30.23,10.0,NE,4.6,-,N/A,,Clear,40,2013-08-17 21:19:00
5:39 PM,78.8,55.4,44,30.23,10.0,East,8.1,-,N/A,,Clear,90,2013-08-17 21:39:00
5:59 PM,77.0,53.6,44,30.23,10.0,East,8.1,-,N/A,,Scattered Clouds,80,2013-08-17 21:59:00
6:19 PM,77.0,53.6,44,30.23,10.0,East,8.1,-,N/A,,Mostly Cloudy,80,2013-08-17 22:19:00
6:39 PM,77.0,53.6,44,30.23,10.0,East,5.8,-,N/A,,Scattered Clouds,100,2013-08-17 22:39:00
6:59 PM,75.2,51.8,44,30.23,10.0,East,6.9,-,N/A,,Scattered Clouds,80,2013-08-17 22:59:00
7:19 PM,73.4,53.6,50,30.23,10.0,East,6.9,-,N/A,,Scattered Clouds,90,2013-08-17 23:19:00
7:39 PM,73.4,55.4,53,30.23,10.0,East,5.8,-,N/A,,Scattered Clouds,80,2013-08-17 23:39:00
7:59 PM,73.4,55.4,53,30.24,10.0,East,5.8,-,N/A,,Clear,100,2013-08-17 23:59:00
8:19 PM,71.6,57.2,60,30.24,10.0,East,8.1,-,N/A,,Clear,80,2013-08-18 00:19:00
8:39 PM,71.6,59.0,64,30.24,10.0,East,8.1,-,N/A,,Clear,90,2013-08-18 00:39:00
8:59 PM,71.6,59.0,64,30.24,10.0,East,9.2,-,N/A,,Clear,90,2013-08-18 00:59:00
9:19 PM,71.6,60.8,69,30.25,10.0,ESE,6.9,-,N/A,,Clear,110,2013-08-18 01:19:00
9:39 PM,71.6,60.8,69,30.26,10.0,East,6.9,-,N/A,,Clear,100,2013-08-18 01:39:00
9:59 PM,69.8,60.8,73,30.26,10.0,East,5.8,-,N/A,,Clear,100,2013-08-18 01:59:00
10:19 PM,69.8,60.8,73,30.25,10.0,East,5.8,-,N/A,,Clear,100,2013-08-18 02:19:00
10:39 PM,69.8,60.8,73,30.25,10.0,ESE,6.9,-,N/A,,Clear,110,2013-08-18 02:39:00
10:59 PM,69.8,60.8,73,30.25,10.0,East,5.8,-,N/A,,Scattered Clouds,100,2013-08-18 02:59:00
11:19 PM,69.8,60.8,73,30.25,10.0,ESE,5.8,-,N/A,Rain,Light Rain,110,2013-08-18 03:19:00
11:39 PM,69.8,60.8,73,30.24,10.0,East,4.6,-,N/A,,Scattered Clouds,100,2013-08-18 03:39:00
11:59 PM,69.8,60.8,73,30.23,10.0,East,6.9,-,N/A,,Clear,90,2013-08-18 03:59:00